Location: ??????
(55.7522°N, 37.6156°E)
Time: 17:40:48
(UTC+00:00)

ALOS 2 - Pass Details

Date: 14 June 2025
Orbit: 630 x 632 km, 97.9° (Epoch: 13 July)

Event Time Altitude Azimuth Distance (km) Brightness Sun altitude
Exits shadow 21:36:14 13° 207° (SSW) 1,846 4.4 -10.9°
Maximum altitude 21:39:38 30° 266° (W) 1,133 3.8 -10.9°
Drops below altitude 10° 21:43:33 10° 328° (NNW) 2,028 6.1 -10.9°
Sets 21:46:00 0° 339° (NNW) 2,941 7.4 -10.9°
